Time,TemperatureF,DewpointF,PressureIn,WindDirection,WindDirectionDegrees,WindSpeedMPH,WindSpeedGustMPH,Humidity,HourlyPrecipIn,Conditions,Clouds,dailyrainin,SoftwareType,DateUTC
2013-08-01 00:00:00,59.0,56.7,29.99,N/A,-737280,0.0,0.0,92,0.00,,,0.00,Wunderground PWS Mod,2013-08-01 07:00:00,
2013-08-01 00:10:00,58.9,56.6,29.99,N/A,-737280,0.0,0.0,92,0.00,,,0.00,Wunderground PWS Mod,2013-08-01 07:10:00,
2013-08-01 00:20:00,58.9,56.6,29.99,N/A,-737280,0.0,0.0,92,0.00,,,0.00,Wunderground PWS Mod,2013-08-01 07:20:00,
2013-08-01 00:30:00,58.9,56.6,30.00,N/A,-737280,0.0,0.0,92,0.00,,,0.00,Wunderground PWS Mod,2013-08-01 07:30:00,
2013-08-01 00:40:00,58.7,56.4,30.00,N/A,-737280,0.0,0.0,92,0.00,,,0.00,Wunderground PWS Mod,2013-08-01 07:40:00,
2013-08-01 00:50:00,58.6,56.3,29.99,N/A,-737280,0.0,0.0,92,0.00,,,0.00,Wunderground PWS Mod,2013-08-01 07:50:00,
2013-08-01 01:00:00,58.6,56.3,30.00,N/A,-737280,0.0,0.0,92,0.00,,,0.00,Wunderground PWS Mod,2013-08-01 08:00:00,
2013-08-01 01:10:00,58.3,55.7,30.00,N/A,-737280,0.0,0.0,91,0.00,,,0.00,Wunderground PWS Mod,2013-08-01 08:10:00,
2013-08-01 01:20:00,57.6,55.0,30.00,SSW,203,0.0,1.0,91,0.00,,,0.00,Wunderground PWS Mod,2013-08-01 08:20:00,
2013-08-01 01:30:00,57.3,54.7,29.99,SSW,203,0.0,1.0,91,0.00,,,0.00,Wunderground PWS Mod,2013-08-01 08:30:00,
2013-08-01 01:40:00,57.0,54.4,29.99,SSW,203,0.0,1.0,91,0.00,,,0.00,Wunderground PWS Mod,2013-08-01 08:40:00,
2013-08-01 01:50:00,56.9,54.3,29.99,SSW,203,0.0,1.0,91,0.00,,,0.00,Wunderground PWS Mod,2013-08-01 08:50:00,
2013-08-01 02:00:00,56.6,54.0,29.99,SSW,203,0.0,1.0,91,0.00,,,0.00,Wunderground PWS Mod,2013-08-01 09:00:00,
2013-08-01 02:10:00,56.5,53.9,29.99,SSW,203,0.0,1.0,91,0.00,,,0.00,Wunderground PWS Mod,2013-08-01 09:10:00,
2013-08-01 02:20:00,56.3,53.7,29.99,SSW,203,0.0,1.0,91,0.00,,,0.00,Wunderground PWS Mod,2013-08-01 09:20:00,
2013-08-01 02:30:00,56.3,53.7,29.99,SSW,203,0.0,1.0,91,0.00,,,0.00,Wunderground PWS Mod,2013-08-01 09:30:00,
2013-08-01 02:40:00,56.0,53.4,29.99,SSW,203,0.0,1.0,91,0.00,,,0.00,Wunderground PWS Mod,2013-08-01 09:40:00,
2013-08-01 02:50:00,55.9,53.3,29.99,N/A,-737280,0.0,0.0,91,0.00,,,0.00,Wunderground PWS Mod,2013-08-01 09:50:00,
2013-08-01 03:00:00,55.7,53.4,29.98,N/A,-737280,0.0,0.0,92,0.00,,,0.00,Wunderground PWS Mod,2013-08-01 10:00:00,
2013-08-01 03:10:00,55.7,53.4,29.98,N/A,-737280,0.0,0.0,92,0.00,,,0.00,Wunderground PWS Mod,2013-08-01 10:10:00,
2013-08-01 03:20:00,55.9,53.6,29.98,N/A,-737280,0.0,0.0,92,0.00,,,0.00,Wunderground PWS Mod,2013-08-01 10:20:00,
2013-08-01 03:30:00,55.9,53.6,29.98,N/A,-737280,0.0,0.0,92,0.00,,,0.00,Wunderground PWS Mod,2013-08-01 10:30:00,
2013-08-01 03:40:00,55.7,53.4,29.98,SSW,203,0.0,1.0,92,0.00,,,0.00,Wunderground PWS Mod,2013-08-01 10:40:00,
2013-08-01 03:50:00,55.6,53.3,29.98,N/A,-737280,0.0,0.0,92,0.00,,,0.00,Wunderground PWS Mod,2013-08-01 10:50:00,
2013-08-01 04:00:00,55.7,53.4,29.98,N/A,-737280,0.0,0.0,92,0.00,,,0.00,Wunderground PWS Mod,2013-08-01 11:00:00,
2013-08-01 04:10:00,55.6,53.3,29.98,SSW,203,0.0,1.0,92,0.00,,,0.00,Wunderground PWS Mod,2013-08-01 11:10:00,
2013-08-01 04:20:00,55.6,53.6,29.98,N/A,-737280,0.0,0.0,93,0.00,,,0.00,Wunderground PWS Mod,2013-08-01 11:20:00,
2013-08-01 04:30:00,55.3,53.0,29.98,N/A,-737280,0.0,0.0,92,0.00,,,0.00,Wunderground PWS Mod,2013-08-01 11:30:00,
2013-08-01 04:40:00,55.0,53.0,29.98,SSW,203,0.0,1.0,93,0.00,,,0.00,Wunderground PWS Mod,2013-08-01 11:40:00,
2013-08-01 04:50:00,54.8,52.8,29.99,SSW,203,0.0,1.0,93,0.00,,,0.00,Wunderground PWS Mod,2013-08-01 11:50:00,
2013-08-01 05:00:00,54.5,52.5,29.99,SSW,203,0.0,1.0,93,0.00,,,0.00,Wunderground PWS Mod,2013-08-01 12:00:00,
2013-08-01 05:10:00,54.2,52.2,29.99,SSW,203,0.0,1.0,93,0.00,,,0.00,Wunderground PWS Mod,2013-08-01 12:10:00,
2013-08-01 05:20:00,54.1,52.1,30.00,SSW,203,0.0,1.0,93,0.00,,,0.00,Wunderground PWS Mod,2013-08-01 12:20:00,
2013-08-01 05:30:00,53.9,51.9,30.00,SSW,203,0.0,1.0,93,0.00,,,0.00,Wunderground PWS Mod,2013-08-01 12:30:00,
2013-08-01 05:40:00,53.8,51.8,30.00,SSW,203,0.0,1.0,93,0.00,,,0.00,Wunderground PWS Mod,2013-08-01 12:40:00,
2013-08-01 05:50:00,53.6,51.6,30.00,SSW,203,0.0,2.0,93,0.00,,,0.00,Wunderground PWS Mod,2013-08-01 12:50:00,
2013-08-01 06:00:00,53.5,51.8,30.00,SSW,203,0.0,1.0,94,0.00,,,0.00,Wunderground PWS Mod,2013-08-01 13:00:00,
2013-08-01 06:10:00,53.5,51.8,30.00,SSW,203,0.0,1.0,94,0.00,,,0.00,Wunderground PWS Mod,2013-08-01 13:10:00,
2013-08-01 06:20:00,53.5,51.8,30.00,SSW,203,0.0,1.0,94,0.00,,,0.00,Wunderground PWS Mod,2013-08-01 13:20:00,
2013-08-01 06:30:00,53.5,51.8,30.00,SSW,203,0.0,1.0,94,0.00,,,0.00,Wunderground PWS Mod,2013-08-01 13:30:00,
2013-08-01 06:40:00,53.5,51.8,30.00,SSW,203,0.0,1.0,94,0.00,,,0.00,Wunderground PWS Mod,2013-08-01 13:40:00,
2013-08-01 06:50:00,53.6,51.9,30.00,SSW,203,0.0,2.0,94,0.00,,,0.00,Wunderground PWS Mod,2013-08-01 13:50:00,
2013-08-01 07:00:00,53.6,51.9,30.01,SSW,203,0.0,2.0,94,0.00,,,0.00,Wunderground PWS Mod,2013-08-01 14:00:00,
2013-08-01 07:10:00,53.6,51.9,30.01,SSW,203,0.0,1.0,94,0.00,,,0.00,Wunderground PWS Mod,2013-08-01 14:10:00,
2013-08-01 07:20:00,53.6,51.9,30.01,SSW,203,0.0,1.0,94,0.00,,,0.00,Wunderground PWS Mod,2013-08-01 14:20:00,
2013-08-01 07:30:00,53.9,52.2,30.00,SSW,203,0.0,1.0,94,0.00,,,0.00,Wunderground PWS Mod,2013-08-01 14:30:00,
2013-08-01 07:40:00,53.8,52.1,30.00,SSW,203,0.0,1.0,94,0.00,,,0.00,Wunderground PWS Mod,2013-08-01 14:40:00,
2013-08-01 07:50:00,53.9,52.2,30.01,SSW,203,0.0,1.0,94,0.00,,,0.00,Wunderground PWS Mod,2013-08-01 14:50:00,
2013-08-01 08:00:00,53.9,52.2,30.00,SSW,203,0.0,2.0,94,0.00,,,0.00,Wunderground PWS Mod,2013-08-01 15:00:00,
2013-08-01 08:10:00,53.9,52.2,30.00,SSW,203,0.0,2.0,94,0.00,,,0.00,Wunderground PWS Mod,2013-08-01 15:10:00,
2013-08-01 08:20:00,54.1,52.4,30.00,SSW,203,0.0,1.0,94,0.00,,,0.00,Wunderground PWS Mod,2013-08-01 15:20:00,
2013-08-01 08:30:00,54.2,52.5,30.01,SSW,203,0.0,1.0,94,0.00,,,0.00,Wunderground PWS Mod,2013-08-01 15:30:00,
2013-08-01 08:40:00,54.4,52.7,30.01,SSW,203,0.0,2.0,94,0.00,,,0.00,Wunderground PWS Mod,2013-08-01 15:40:00,
2013-08-01 08:50:00,54.4,53.0,30.00,SSW,203,0.0,1.0,95,0.00,,,0.00,Wunderground PWS Mod,2013-08-01 15:50:00,
2013-08-01 09:00:00,54.4,52.7,30.00,SSW,203,0.0,1.0,94,0.00,,,0.00,Wunderground PWS Mod,2013-08-01 16:00:00,
2013-08-01 09:10:00,54.4,53.0,30.00,SSW,203,0.0,1.0,95,0.00,,,0.00,Wunderground PWS Mod,2013-08-01 16:10:00,
2013-08-01 09:20:00,54.5,53.1,30.00,SSW,203,0.0,1.0,95,0.00,,,0.00,Wunderground PWS Mod,2013-08-01 16:20:00,
2013-08-01 09:30:00,54.4,53.0,30.01,SSW,203,0.0,1.0,95,0.00,,,0.00,Wunderground PWS Mod,2013-08-01 16:30:00,
2013-08-01 09:40:00,54.4,53.0,30.01,SSW,203,0.0,2.0,95,0.00,,,0.00,Wunderground PWS Mod,2013-08-01 16:40:00,
2013-08-01 09:50:00,54.4,53.0,30.00,SSW,203,0.0,2.0,95,0.00,,,0.00,Wunderground PWS Mod,2013-08-01 16:50:00,
2013-08-01 10:00:00,54.7,53.3,30.00,SSW,203,0.0,1.0,95,0.00,,,0.00,Wunderground PWS Mod,2013-08-01 17:00:00,
2013-08-01 10:10:00,55.1,53.7,30.00,SSW,203,0.0,1.0,95,0.00,,,0.00,Wunderground PWS Mod,2013-08-01 17:10:00,
2013-08-01 10:20:00,55.3,53.9,30.00,SSW,203,0.0,1.0,95,0.00,,,0.00,Wunderground PWS Mod,2013-08-01 17:20:00,
2013-08-01 10:30:00,55.4,53.7,30.00,SSW,203,0.0,1.0,94,0.00,,,0.00,Wunderground PWS Mod,2013-08-01 17:30:00,
2013-08-01 10:40:00,55.3,53.6,30.00,SSW,203,0.0,1.0,94,0.00,,,0.00,Wunderground PWS Mod,2013-08-01 17:40:00,
2013-08-01 10:50:00,55.4,53.7,30.00,SSW,203,0.0,2.0,94,0.00,,,0.00,Wunderground PWS Mod,2013-08-01 17:50:00,
2013-08-01 11:00:00,55.9,54.2,30.00,SSW,203,0.0,1.0,94,0.00,,,0.00,Wunderground PWS Mod,2013-08-01 18:00:00,
2013-08-01 11:10:00,56.0,54.3,30.00,N/A,-737280,0.0,0.0,94,0.00,,,0.00,Wunderground PWS Mod,2013-08-01 18:10:00,
2013-08-01 11:20:00,56.0,54.3,30.00,NNE,23,0.0,2.0,94,0.00,,,0.00,Wunderground PWS Mod,2013-08-01 18:20:00,
2013-08-01 11:30:00,56.3,54.3,30.00,NNE,23,0.0,1.0,93,0.00,,,0.00,Wunderground PWS Mod,2013-08-01 18:30:00,
2013-08-01 11:40:00,56.6,54.6,30.00,NNE,23,0.0,1.0,93,0.00,,,0.00,Wunderground PWS Mod,2013-08-01 18:40:00,
2013-08-01 11:50:00,56.6,54.3,30.00,NNW,338,0.0,2.0,92,0.00,,,0.00,Wunderground PWS Mod,2013-08-01 18:50:00,
2013-08-01 12:00:00,56.9,54.6,30.00,N/A,-737280,0.0,0.0,92,0.00,,,0.00,Wunderground PWS Mod,2013-08-01 19:00:00,
2013-08-01 12:10:00,57.3,54.7,30.00,N/A,-737280,0.0,0.0,91,0.00,,,0.00,Wunderground PWS Mod,2013-08-01 19:10:00,
2013-08-01 12:20:00,57.8,54.6,30.00,N/A,-737280,0.0,0.0,89,0.00,,,0.00,Wunderground PWS Mod,2013-08-01 19:20:00,
2013-08-01 12:30:00,58.3,54.8,30.00,N/A,-737280,0.0,0.0,88,0.00,,,0.00,Wunderground PWS Mod,2013-08-01 19:30:00,
2013-08-01 12:40:00,58.6,54.7,30.00,NNW,338,0.0,1.0,87,0.00,,,0.00,Wunderground PWS Mod,2013-08-01 19:40:00,
2013-08-01 12:50:00,58.7,54.5,30.00,N/A,-737280,0.0,0.0,86,0.00,,,0.00,Wunderground PWS Mod,2013-08-01 19:50:00,
2013-08-01 13:00:00,59.2,55.0,30.00,N/A,-737280,0.0,0.0,86,0.00,,,0.00,Wunderground PWS Mod,2013-08-01 20:00:00,
2013-08-01 13:10:00,59.3,54.5,30.00,NNW,338,0.0,1.0,84,0.00,,,0.00,Wunderground PWS Mod,2013-08-01 20:10:00,
2013-08-01 13:20:00,59.5,54.7,30.01,NNW,338,0.0,1.0,84,0.00,,,0.00,Wunderground PWS Mod,2013-08-01 20:20:00,
2013-08-01 13:30:00,59.5,54.3,30.01,NNW,338,0.0,1.0,83,0.00,,,0.00,Wunderground PWS Mod,2013-08-01 20:30:00,
2013-08-01 13:40:00,59.5,54.7,30.01,North,0,0.0,1.0,84,0.00,,,0.00,Wunderground PWS Mod,2013-08-01 20:40:00,
2013-08-01 13:50:00,59.6,54.4,30.01,N/A,-737280,0.0,0.0,83,0.00,,,0.00,Wunderground PWS Mod,2013-08-01 20:50:00,
2013-08-01 14:00:00,59.9,54.7,30.01,North,0,0.0,1.0,83,0.00,,,0.00,Wunderground PWS Mod,2013-08-01 21:00:00,
2013-08-01 14:10:00,60.4,54.9,30.01,N/A,-737280,0.0,0.0,82,0.00,,,0.00,Wunderground PWS Mod,2013-08-01 21:10:00,
2013-08-01 14:20:00,61.0,54.4,30.00,North,0,0.0,1.0,79,0.00,,,0.00,Wunderground PWS Mod,2013-08-01 21:20:00,
2013-08-01 14:30:00,61.5,54.9,30.00,NNE,23,0.0,1.0,79,0.00,,,0.00,Wunderground PWS Mod,2013-08-01 21:30:00,
2013-08-01 14:40:00,61.5,54.6,30.00,NNE,23,0.0,1.0,78,0.00,,,0.00,Wunderground PWS Mod,2013-08-01 21:40:00,
2013-08-01 14:50:00,61.3,54.7,30.01,ENE,68,0.0,3.0,79,0.00,,,0.00,Wunderground PWS Mod,2013-08-01 21:50:00,
2013-08-01 15:00:00,61.2,54.6,30.01,ENE,68,0.0,1.0,79,0.00,,,0.00,Wunderground PWS Mod,2013-08-01 22:00:00,
2013-08-01 15:10:00,61.0,54.4,30.01,ENE,68,0.0,1.0,79,0.00,,,0.00,Wunderground PWS Mod,2013-08-01 22:10:00,
2013-08-01 15:20:00,61.0,54.4,30.01,NE,45,0.0,1.0,79,0.00,,,0.00,Wunderground PWS Mod,2013-08-01 22:20:00,
2013-08-01 15:30:00,60.7,54.1,30.01,N/A,-737280,0.0,0.0,79,0.00,,,0.00,Wunderground PWS Mod,2013-08-01 22:30:00,
2013-08-01 15:40:00,60.5,54.0,30.01,ENE,68,0.0,1.0,79,0.00,,,0.00,Wunderground PWS Mod,2013-08-01 22:40:00,
2013-08-01 15:50:00,60.5,53.6,30.01,N/A,-737280,0.0,0.0,78,0.00,,,0.00,Wunderground PWS Mod,2013-08-01 22:50:00,
2013-08-01 16:00:00,60.9,54.3,30.01,NE,45,0.0,2.0,79,0.00,,,0.00,Wunderground PWS Mod,2013-08-01 23:00:00,
2013-08-01 16:10:00,61.5,54.6,30.01,NE,45,0.0,1.0,78,0.00,,,0.00,Wunderground PWS Mod,2013-08-01 23:10:00,
2013-08-01 16:20:00,61.6,54.3,30.01,N/A,-737280,0.0,0.0,77,0.00,,,0.00,Wunderground PWS Mod,2013-08-01 23:20:00,
2013-08-01 16:30:00,61.6,54.7,30.00,N/A,-737280,0.0,0.0,78,0.00,,,0.00,Wunderground PWS Mod,2013-08-01 23:30:00,
2013-08-01 16:40:00,61.8,54.5,30.00,NE,45,0.0,1.0,77,0.00,,,0.00,Wunderground PWS Mod,2013-08-01 23:40:00,
2013-08-01 16:50:00,61.6,54.3,30.00,N/A,-737280,0.0,0.0,77,0.00,,,0.00,Wunderground PWS Mod,2013-08-01 23:50:00,
2013-08-01 17:00:00,61.8,54.5,29.99,N/A,-737280,0.0,0.0,77,0.00,,,0.00,Wunderground PWS Mod,2013-08-02 00:00:00,
2013-08-01 17:10:00,62.0,54.7,29.99,N/A,-737280,0.0,0.0,77,0.00,,,0.00,Wunderground PWS Mod,2013-08-02 00:10:00,
2013-08-01 17:20:00,61.8,54.5,30.00,N/A,-737280,0.0,0.0,77,0.00,,,0.00,Wunderground PWS Mod,2013-08-02 00:20:00,
2013-08-01 17:30:00,61.8,55.2,29.99,N/A,-737280,0.0,0.0,79,0.00,,,0.00,Wunderground PWS Mod,2013-08-02 00:30:00,
2013-08-01 17:40:00,61.8,55.2,29.99,N/A,-737280,0.0,0.0,79,0.00,,,0.00,Wunderground PWS Mod,2013-08-02 00:40:00,
2013-08-01 17:50:00,61.8,55.2,29.99,N/A,-737280,0.0,0.0,79,0.00,,,0.00,Wunderground PWS Mod,2013-08-02 00:50:00,
2013-08-01 18:00:00,61.6,55.0,30.00,N/A,-737280,0.0,0.0,79,0.00,,,0.00,Wunderground PWS Mod,2013-08-02 01:00:00,
2013-08-01 18:10:00,61.8,54.9,30.00,N/A,-737280,0.0,0.0,78,0.00,,,0.00,Wunderground PWS Mod,2013-08-02 01:10:00,
2013-08-01 18:20:00,62.1,55.2,30.00,ESE,113,0.0,1.0,78,0.00,,,0.00,Wunderground PWS Mod,2013-08-02 01:20:00,
2013-08-01 18:30:00,62.1,54.8,29.99,ESE,113,0.0,1.0,77,0.00,,,0.00,Wunderground PWS Mod,2013-08-02 01:30:00,
2013-08-01 18:40:00,62.1,55.9,29.99,N/A,-737280,0.0,0.0,80,0.00,,,0.00,Wunderground PWS Mod,2013-08-02 01:40:00,
2013-08-01 18:50:00,61.8,55.2,29.99,N/A,-737280,0.0,0.0,79,0.00,,,0.00,Wunderground PWS Mod,2013-08-02 01:50:00,
2013-08-01 19:00:00,61.8,55.2,30.00,N/A,-737280,0.0,0.0,79,0.00,,,0.00,Wunderground PWS Mod,2013-08-02 02:00:00,
2013-08-01 19:10:00,61.6,55.0,30.00,N/A,-737280,0.0,0.0,79,0.00,,,0.00,Wunderground PWS Mod,2013-08-02 02:10:00,
2013-08-01 19:20:00,61.3,55.1,30.00,N/A,-737280,0.0,0.0,80,0.00,,,0.00,Wunderground PWS Mod,2013-08-02 02:20:00,
2013-08-01 19:30:00,61.2,55.7,30.00,N/A,-737280,0.0,0.0,82,0.00,,,0.00,Wunderground PWS Mod,2013-08-02 02:30:00,
2013-08-01 19:40:00,60.9,55.0,30.00,N/A,-737280,0.0,0.0,81,0.00,,,0.00,Wunderground PWS Mod,2013-08-02 02:40:00,
2013-08-01 19:50:00,60.5,54.0,30.00,ESE,113,0.0,1.0,79,0.00,,,0.00,Wunderground PWS Mod,2013-08-02 02:50:00,
2013-08-01 20:00:00,60.4,53.9,30.00,N/A,-737280,0.0,0.0,79,0.00,,,0.00,Wunderground PWS Mod,2013-08-02 03:00:00,
2013-08-01 20:10:00,60.2,53.7,30.00,N/A,-737280,0.0,0.0,79,0.00,,,0.00,Wunderground PWS Mod,2013-08-02 03:10:00,
2013-08-01 20:20:00,60.1,53.6,30.00,ENE,68,0.0,2.0,79,0.00,,,0.00,Wunderground PWS Mod,2013-08-02 03:20:00,
2013-08-01 20:30:00,59.9,53.4,30.00,ENE,68,0.0,1.0,79,0.00,,,0.00,Wunderground PWS Mod,2013-08-02 03:30:00,
2013-08-01 20:40:00,59.8,53.6,30.00,ENE,68,0.0,1.0,80,0.00,,,0.00,Wunderground PWS Mod,2013-08-02 03:40:00,
2013-08-01 20:50:00,59.6,53.1,30.01,ENE,68,0.0,2.0,79,0.00,,,0.00,Wunderground PWS Mod,2013-08-02 03:50:00,
2013-08-01 21:00:00,59.6,53.1,30.01,NE,45,0.0,1.0,79,0.00,,,0.00,Wunderground PWS Mod,2013-08-02 04:00:00,
2013-08-01 21:10:00,59.5,53.0,30.01,NE,45,0.0,1.0,79,0.00,,,0.00,Wunderground PWS Mod,2013-08-02 04:10:00,
2013-08-01 21:20:00,59.3,53.1,30.02,NE,45,0.0,1.0,80,0.00,,,0.00,Wunderground PWS Mod,2013-08-02 04:20:00,
2013-08-01 21:30:00,59.3,53.1,30.01,N/A,-737280,0.0,0.0,80,0.00,,,0.00,Wunderground PWS Mod,2013-08-02 04:30:00,
2013-08-01 21:40:00,59.2,53.0,30.01,NE,45,0.0,4.0,80,0.00,,,0.00,Wunderground PWS Mod,2013-08-02 04:40:00,
2013-08-01 21:50:00,59.2,53.0,30.01,N/A,-737280,0.0,0.0,80,0.00,,,0.00,Wunderground PWS Mod,2013-08-02 04:50:00,
2013-08-01 22:00:00,59.0,52.8,30.01,North,0,0.0,1.0,80,0.00,,,0.00,Wunderground PWS Mod,2013-08-02 05:00:00,
2013-08-01 22:10:00,58.9,53.1,30.01,North,0,0.0,1.0,81,0.00,,,0.00,Wunderground PWS Mod,2013-08-02 05:10:00,
2013-08-01 22:20:00,58.7,52.9,30.01,North,0,0.0,1.0,81,0.00,,,0.00,Wunderground PWS Mod,2013-08-02 05:20:00,
2013-08-01 22:30:00,58.6,52.8,30.01,NE,45,0.0,1.0,81,0.00,,,0.00,Wunderground PWS Mod,2013-08-02 05:30:00,
2013-08-01 22:40:00,58.4,52.6,30.01,NE,45,0.0,1.0,81,0.00,,,0.00,Wunderground PWS Mod,2013-08-02 05:40:00,
2013-08-01 22:50:00,58.3,52.8,30.01,NE,45,0.0,2.0,82,0.00,,,0.00,Wunderground PWS Mod,2013-08-02 05:50:00,
2013-08-01 23:00:00,58.1,52.6,30.01,NE,45,0.0,1.0,82,0.00,,,0.00,Wunderground PWS Mod,2013-08-02 06:00:00,
2013-08-01 23:10:00,58.0,52.9,30.01,ENE,68,0.0,1.0,83,0.00,,,0.00,Wunderground PWS Mod,2013-08-02 06:10:00,
2013-08-01 23:20:00,58.0,52.9,30.02,ENE,68,0.0,1.0,83,0.00,,,0.00,Wunderground PWS Mod,2013-08-02 06:20:00,
2013-08-01 23:30:00,57.8,53.0,30.02,NNE,23,0.0,3.0,84,0.00,,,0.00,Wunderground PWS Mod,2013-08-02 06:30:00,
2013-08-01 23:40:00,57.6,52.8,30.02,NNE,23,0.0,1.0,84,0.00,,,0.00,Wunderground PWS Mod,2013-08-02 06:40:00,
2013-08-01 23:50:00,57.6,52.8,30.02,NE,45,0.0,1.0,84,0.00,,,0.00,Wunderground PWS Mod,2013-08-02 06:50:00,